Location: Cazavet
(43.0017°N, 1.0431°E)
Time: 23:33:19
(UTC+00:00)

BREEZE-M DEB (TANK) - Pass Details

Date: 18 January 2026
Orbit: 313 x 16556 km, 49.5° (Epoch: 12 February)

Event Time Altitude Azimuth Distance (km) Brightness Sun altitude
Exits shadow 05:05:23 73° 322° (NW) 759 3.2 -24.8°
Maximum altitude 05:05:47 83° 28° (NNE) 779 3.4 -24.7°
Drops below altitude 10° 05:15:48 10° 118° (ESE) 5,017 8.6 -22.9°
Sets 05:23:28 0° 120° (ESE) 8,102 9.9 -21.5°
